DW7854 Weather Reports


time (UTC)temp
C
wind
direction
speed
KPH
gust
KPH
rain 1hr
cm
rain 24hr
cm
rain mn
cm
humidity
%
barometer
mb
20260902003008 34 133 0.0 3.2 0.00 0.00 0.00 52 1011.9
20260902002903 34 133 1.6 3.2 0.00 0.00 0.00 52 1012.2
20260902002003 35 134 1.6 3.2 0.00 0.00 0.00 51 1012.3
20260902001508 34 135 1.6 4.8 0.00 0.00 0.00 51 1012.0
20260902001103 35 142 3.2 6.4 0.00 0.00 0.00 50 1012.3
20260902000011 35 153 1.6 8.0 0.00 0.00 0.00 50 1012.0
20260901235307 35 138 4.8 8.0 0.00 0.00 0.00 49 1012.4
20260901234503 35 121 3.2 11.3 0.00 0.00 0.00 49 1012.1
20260901234403 35 145 6.4 11.3 0.00 0.00 0.00 49 1012.4
20260901233503 35 161 6.4 14.5 0.00 0.00 0.00 48 1012.5
20260901233111 35 149 3.2 14.5 0.00 0.00 0.00 48 1012.2
20260901232603 36 138 4.8 11.3 0.00 0.00 0.00 47 1012.6
20260901231703 36 138 6.4 16.1 0.00 0.00 0.00 46 1012.6
20260901231609 36 114 6.4 16.1 0.00 0.00 0.00 47 1012.3
20260901230803 36 115 4.8 12.9 0.00 0.00 0.00 46 1012.6
20260901230012 36 108 1.6 11.3 0.00 0.00 0.00 46 1012.3
20260901225903 36 112 6.4 12.9 0.00 0.00 0.00 46 1012.7
20260901225003 36 155 8.0 17.7 0.00 0.00 0.00 46 1012.7
20260901224504 36 127 4.8 17.7 0.00 0.00 0.00 47 1012.5
20260901224103 37 169 9.7 17.7 0.00 0.00 0.00 46 1012.7
20260901223008 36 161 11.3 20.9 0.00 0.00 0.00 46 1012.4
20260901222306 37 157 11.3 19.3 0.00 0.00 0.00 45 1012.9
20260901221505 37 159 11.3 17.7 0.00 0.00 0.00 45 1012.6
20260901221403 37 151 9.7 17.7 0.00 0.00 0.00 45 1012.9
20260901220503 37 154 9.7 14.5 0.00 0.00 0.00 45 1012.8
20260901220134 37 171 9.7 16.1 0.00 0.00 0.00 46 1012.6
20260901214703 37 158 9.7 17.7 0.00 0.00 0.00 45 1012.9
20260901214503 37 137 8.0 17.7 0.00 0.00 0.00 44 1012.6
20260901213802 37 156 11.3 17.7 0.00 0.00 0.00 45 1013.0
20260901213120 37 132 12.9 19.3 0.00 0.00 0.00 44 1012.7
20260901212903 37 153 11.3 19.3 0.00 0.00 0.00 44 1013.0
20260901212002 37 143 9.7 20.9 0.00 0.00 0.00 45 1013.1
20260901211503 37 153 6.4 17.7 0.00 0.00 0.00 46 1012.8
20260901211103 37 147 9.7 17.7 0.00 0.00 0.00 44 1013.2
20260901210203 37 157 12.9 24.1 0.00 0.00 0.00 45 1013.2
20260901210017 37 148 12.9 25.7 0.00 0.00 0.00 45 1012.9
20260901205306 38 162 12.9 24.1 0.00 0.00 0.00 45 1013.2
20260901204604 38 165 14.5 24.1 0.00 0.00 0.00 45 1012.9
20260901204403 38 164 11.3 24.1 0.00 0.00 0.00 45 1013.2
20260901203503 37 138 8.0 17.7 0.00 0.00 0.00 46 1013.4
20260901203110 37 165 6.4 12.9 0.00 0.00 0.00 46 1013.1
20260901202603 37 127 8.0 22.5 0.00 0.00 0.00 45 1013.5
20260901201703 38 154 4.8 16.1 0.00 0.00 0.00 44 1013.6
20260901201505 37 95 4.8 11.3 0.00 0.00 0.00 45 1013.2
20260901200803 38 140 4.8 12.9 0.00 0.00 0.00 44 1013.7
20260901200005 37 106 1.6 8.0 0.00 0.00 0.00 45 1013.5
20260901195903 37 84 4.8 11.3 0.00 0.00 0.00 45 1013.9
20260901195002 38 116 4.8 14.5 0.00 0.00 0.00 44 1014.0
20260901194603 37 130 1.6 9.7 0.00 0.00 0.00 46 1013.7
20260901194103 37 181 4.8 11.3 0.00 0.00 0.00 46 1014.1
20260901193202 37 163 6.4 20.9 0.00 0.00 0.00 46 1014.3
20260901193004 37 299 4.8 20.9 0.00 0.00 0.00 45 1014.0
20260901192306 38 151 8.0 16.1 0.00 0.00 0.00 44 1014.3
20260901191617 37 137 11.3 17.7 0.00 0.00 0.00 46 1014.1
20260901191402 37 125 6.4 14.5 0.00 0.00 0.00 47 1014.4
20260901190005 37 176 12.9 19.3 0.00 0.00 0.00 45 1014.1
20260901185603 37 162 11.3 19.3 0.00 0.00 0.00 45 1014.4
20260901184702 37 162 8.0 16.1 0.00 0.00 0.00 46 1014.6
20260901184508 37 159 8.0 16.1 0.00 0.00 0.00 45 1014.3
20260901183803 37 177 9.7 19.3 0.00 0.00 0.00 44 1014.8
20260901183009 36 180 9.7 20.9 0.00 0.00 0.00 44 1014.6
20260901182902 37 172 9.7 20.9 0.00 0.00 0.00 44 1014.9
20260901182002 37 174 9.7 19.3 0.00 0.00 0.00 44 1015.1
20260901181512 36 155 9.7 20.9 0.00 0.00 0.00 45 1014.9
20260901181102 36 171 12.9 20.9 0.00 0.00 0.00 46 1015.3
20260901180004 36 169 12.9 30.6 0.00 0.00 0.00 45 1015.2
20260901175305 36 172 11.3 24.1 0.00 0.00 0.00 47 1015.6
20260901174504 36 189 12.9 20.9 0.00 0.00 0.00 47 1015.4
20260901174403 36 148 9.7 19.3 0.00 0.00 0.00 49 1015.8
20260901173502 36 164 11.3 19.3 0.00 0.00 0.00 48 1015.9
20260901173003 36 183 9.7 17.7 0.00 0.00 0.00 49 1015.7
20260901172602 36 157 8.0 17.7 0.00 0.00 0.00 49 1016.1
20260901171702 36 150 6.4 16.1 0.00 0.00 0.00 50 1016.1
20260901171503 36 160 11.3 16.1 0.00 0.00 0.00 50 1015.7
20260901170802 36 138 4.8 14.5 0.00 0.00 0.00 52 1016.2
20260901170006 35 119 8.0 16.1 0.00 0.00 0.00 50 1016.0
20260901165902 36 152 8.0 16.1 0.00 0.00 0.00 51 1016.3
20260901165002 35 181 9.7 22.5 0.00 0.00 0.00 50 1016.5
20260901164504 35 134 4.8 22.5 0.00 0.00 0.00 51 1016.2
20260901164102 35 155 8.0 16.1 0.00 0.00 0.00 53 1016.6
20260901163202 35 178 3.2 16.1 0.00 0.00 0.00 52 1016.6
20260901163109 34 173 4.8 12.9 0.00 0.00 0.00 52 1016.3
20260901162305 35 161 6.4 11.3 0.00 0.00 0.00 54 1016.7
20260901161509 35 98 4.8 11.3 0.00 0.00 0.00 54 1016.5
20260901161402 35 157 4.8 11.3 0.00 0.00 0.00 54 1016.8
20260901160004 34 183 6.4 14.5 0.00 0.00 0.00 56 1016.5
20260901155602 34 162 4.8 11.3 0.00 0.00 0.00 56 1017.0
20260901154702 34 147 4.8 11.3 0.00 0.00 0.00 57 1016.9
20260901154602 33 135 6.4 9.7 0.00 0.00 0.00 58 1016.5
20260901153802 34 152 4.8 9.7 0.00 0.00 0.00 57 1016.9
20260901153110 33 159 4.8 9.7 0.00 0.00 0.00 57 1016.6
20260901152902 33 149 4.8 12.9 0.00 0.00 0.00 58 1016.9
20260901152002 33 183 3.2 12.9 0.00 0.00 0.00 59 1016.9
20260901151603 33 238 1.6 8.0 0.00 0.00 0.00 59 1016.6
20260901151102 33 190 3.2 9.7 0.00 0.00 0.00 60 1016.9
20260901150202 33 195 3.2 6.4 0.00 0.00 0.00 62 1017.0
20260901150107 32 284 1.6 8.0 0.00 0.00 0.00 61 1016.6
20260901145306 32 171 3.2 9.7 0.00 0.00 0.00 62 1017.0
20260901144505 32 153 3.2 8.0 0.00 0.00 0.00 65 1016.7
20260901144402 32 135 1.6 8.0 0.00 0.00 0.00 64 1017.0
20260901143502 31 171 1.6 3.2 0.00 0.00 0.00 65 1017.0
20260901143002 31 311 0.0 3.2 0.00 0.00 0.00 66 1016.7
20260901142602 31 152 1.6 4.8 0.00 0.00 0.00 67 1017.0
20260901141702 30 150 1.6 4.8 0.00 0.00 0.00 69 1017.1
20260901141605 30 145 1.6 4.8 0.00 0.00 0.00 69 1016.8
20260901140802 30 140 1.6 4.8 0.00 0.00 0.00 71 1017.1
20260901140105 28 131 0.0 4.8 0.00 0.00 0.00 72 1016.8
20260901135902 29 131 1.6 4.8 0.00 0.00 0.00 73 1017.1
20260901134615 27 59 0.0 3.2 0.00 0.00 0.00 76 1016.8
20260901133202 26 81 0.0 3.2 0.00 0.00 0.00 80 1017.2
20260901133003 26 59 0.0 3.2 0.00 0.00 0.00 81 1016.8
20260901132306 26 90 0.0 3.2 0.00 0.00 0.00 83 1017.1
20260901131511 25 92 0.0 3.2 0.00 0.00 0.00 85 1016.8
20260901131402 25 43 0.0 3.2 0.00 0.00 0.00 85 1017.0
20260901130502 24 0 0.0 0.0 0.00 0.00 0.00 88 1016.9
20260901130004 23 142 0.0 0.0 0.00 0.00 0.00 89 1016.6
20260901125602 23 0 0.0 0.0 0.00 0.00 0.00 89 1016.9
20260901124702 23 144 0.0 1.6 0.00 0.00 0.00 89 1016.8
20260901124605 23 142 0.0 1.6 0.00 0.00 0.00 89 1016.5
20260901123015 23 20 0.0 1.6 0.00 0.00 0.00 89 1016.4
20260901122902 23 13 0.0 1.6 0.00 0.00 0.00 89 1016.7
20260901122002 23 321 0.0 1.6 0.00 0.00 0.00 89 1016.5
20260901121503 23 321 0.0 1.6 0.00 0.00 0.00 89 1016.2
20260901121102 23 292 0.0 1.6 0.00 0.00 0.00 89 1016.4
20260901120202 23 0 0.0 0.0 0.00 0.00 0.00 88 1016.3
20260901120009 23 96 0.0 0.0 0.00 0.00 0.00 88 1016.0
20260901115306 23 0 0.0 0.0 0.00 0.00 0.00 88 1016.2
20260901114513 23 135 0.0 0.0 0.00 0.00 0.00 88 1015.8
20260901114402 23 0 0.0 0.0 0.00 0.00 0.00 88 1016.0
20260901113502 23 0 0.0 0.0 0.00 0.00 0.00 87 1015.9
20260901113003 23 144 0.0 0.0 0.00 0.00 0.00 87 1015.6
20260901112602 23 0 0.0 0.0 0.00 0.00 0.00 87 1015.9
20260901111702 23 0 0.0 0.0 0.00 0.00 0.00 87 1015.9
20260901111504 23 144 0.0 0.0 0.00 0.00 0.00 87 1015.6
20260901110802 23 0 0.0 0.0 0.00 0.00 0.00 87 1016.0
20260901110109 23 144 0.0 0.0 0.00 0.00 0.00 87 1015.6
20260901105902 23 0 0.0 0.0 0.00 0.00 0.00 87 1015.9
20260901104611 23 144 0.0 0.0 0.00 0.00 0.00 86 1015.5
20260901104102 24 0 0.0 0.0 0.00 0.00 0.00 86 1015.7
20260901103007 24 144 0.0 0.0 0.00 0.00 0.00 85 1015.5
20260901102306 24 0 0.0 0.0 0.00 0.00 0.00 85 1015.7
20260901101507 24 144 0.0 0.0 0.00 0.00 0.00 84 1015.3
20260901101402 24 0 0.0 0.0 0.00 0.00 0.00 85 1015.6
20260901100009 24 144 0.0 0.0 0.00 0.00 0.00 85 1015.3
20260901094702 24 0 0.0 0.0 0.00 0.00 0.00 84 1015.7
20260901094604 24 144 0.0 0.0 0.00 0.00 0.00 84 1015.4
20260901093802 24 0 0.0 0.0 0.00 0.00 0.00 84 1015.7
20260901093004 24 144 0.0 0.0 0.00 0.00 0.00 84 1015.4
20260901092902 25 0 0.0 0.0 0.00 0.00 0.00 84 1015.6
20260901091509 24 144 0.0 0.0 0.00 0.00 0.00 84 1015.4
20260901091102 25 0 0.0 0.0 0.00 0.00 0.00 83 1015.7
20260901090202 24 0 0.0 0.0 0.00 0.00 0.00 84 1015.6
20260901090008 24 144 0.0 0.0 0.00 0.00 0.00 84 1015.3
20260901085305 24 0 0.0 0.0 0.00 0.00 0.00 85 1015.5
20260901084507 24 144 0.0 0.0 0.00 0.00 0.00 85 1015.3
20260901084402 24 0 0.0 0.0 0.00 0.00 0.00 85 1015.6
20260901083502 24 0 0.0 0.0 0.00 0.00 0.00 84 1015.6
20260901083012 24 144 0.0 0.0 0.00 0.00 0.00 84 1015.4
20260901082602 25 0 0.0 0.0 0.00 0.00 0.00 84 1015.8
20260901081702 25 144 1.6 3.2 0.00 0.00 0.00 84 1015.7
20260901081603 24 144 0.0 3.2 0.00 0.00 0.00 84 1015.4
20260901080004 24 144 1.6 3.2 0.00 0.00 0.00 84 1015.3
20260901075002 25 144 1.6 3.2 0.00 0.00 0.00 83 1015.6
20260901074502 25 144 0.0 3.2 0.00 0.00 0.00 83 1015.2
20260901074102 25 144 1.6 3.2 0.00 0.00 0.00 82 1015.6
20260901073202 25 144 0.0 1.6 0.00 0.00 0.00 82 1015.7
20260901073004 25 144 0.0 3.2 0.00 0.00 0.00 82 1015.3
20260901072308 25 143 1.6 3.2 0.00 0.00 0.00 81 1015.6
20260901071606 25 144 0.0 3.2 0.00 0.00 0.00 81 1015.3
20260901071402 25 144 1.6 3.2 0.00 0.00 0.00 81 1015.6
20260901070502 25 144 1.6 3.2 0.00 0.00 0.00 80 1015.4
20260901070007 25 144 0.0 3.2 0.00 0.00 0.00 80 1015.2
20260901065602 25 144 0.0 1.6 0.00 0.00 0.00 80 1015.5
20260901064702 26 0 0.0 0.0 0.00 0.00 0.00 79 1015.4
20260901064509 25 144 0.0 0.0 0.00 0.00 0.00 79 1015.0
20260901063802 26 0 0.0 0.0 0.00 0.00 0.00 79 1015.4
20260901063006 26 144 0.0 0.0 0.00 0.00 0.00 78 1015.0
20260901062902 26 0 0.0 0.0 0.00 0.00 0.00 78 1015.4
20260901062002 26 0 0.0 0.0 0.00 0.00 0.00 77 1015.3
20260901061509 26 144 0.0 0.0 0.00 0.00 0.00 77 1015.0
20260901061102 26 0 0.0 0.0 0.00 0.00 0.00 77 1015.2
20260901060202 26 144 0.0 1.6 0.00 0.00 0.00 76 1015.3
20260901060004 26 144 0.0 1.6 0.00 0.00 0.00 76 1014.9
20260901055306 27 144 0.0 1.6 0.00 0.00 0.00 75 1015.2
20260901054503 27 144 0.0 1.6 0.00 0.00 0.00 75 1014.8
20260901054402 27 144 0.0 1.6 0.00 0.00 0.00 74 1015.0
20260901053502 27 144 0.0 1.6 0.00 0.00 0.00 74 1014.9
20260901053004 27 145 0.0 1.6 0.00 0.00 0.00 73 1014.6
20260901051702 27 0 0.0 0.0 0.00 0.00 0.00 72 1014.8
20260901051505 27 144 0.0 0.0 0.00 0.00 0.00 72 1014.5
20260901050802 27 142 0.0 1.6 0.00 0.00 0.00 72 1014.8
20260901050009 27 144 0.0 3.2 0.00 0.00 0.00 71 1014.4
20260901045902 27 130 0.0 3.2 0.00 0.00 0.00 71 1014.7
20260901045002 27 122 0.0 1.6 0.00 0.00 0.00 71 1014.8
20260901044502 27 123 0.0 1.6 0.00 0.00 0.00 71 1014.4
20260901044102 28 123 0.0 3.2 0.00 0.00 0.00 70 1014.8
20260901043007 27 123 0.0 1.6 0.00 0.00 0.00 70 1014.4
20260901042305 28 127 0.0 3.2 0.00 0.00 0.00 70 1014.8
20260901041508 28 123 0.0 3.2 0.00 0.00 0.00 69 1014.5
20260901041402 28 126 0.0 3.2 0.00 0.00 0.00 69 1014.8
20260901040502 28 127 0.0 3.2 0.00 0.00 0.00 69 1014.8
20260901040113 28 121 0.0 3.2 0.00 0.00 0.00 68 1014.4
20260901034702 28 112 0.0 3.2 0.00 0.00 0.00 68 1014.7
20260901034504 28 113 0.0 3.2 0.00 0.00 0.00 68 1014.3
20260901033802 28 113 0.0 3.2 0.00 0.00 0.00 67 1014.6
20260901033107 28 113 0.0 1.6 0.00 0.00 0.00 67 1014.3
20260901032902 28 113 0.0 1.6 0.00 0.00 0.00 67 1014.6
20260901032002 28 147 0.0 1.6 0.00 0.00 0.00 66 1014.6
20260901031603 28 111 0.0 1.6 0.00 0.00 0.00 65 1014.3
20260901031102 29 110 0.0 1.6 0.00 0.00 0.00 65 1014.5
20260901030202 29 112 0.0 3.2 0.00 0.00 0.00 64 1014.3
20260901030104 28 111 0.0 3.2 0.00 0.00 0.00 64 1014.0
20260901024605 29 117 0.0 4.8 0.00 0.00 0.00 64 1013.7
20260901024402 29 116 0.0 4.8 0.00 0.00 0.00 63 1014.0
20260901023502 29 144 0.0 4.8 0.00 0.00 0.00 63 1014.0
20260901023102 28 159 0.0 4.8 0.00 0.00 0.00 63 1013.7
20260901022602 29 143 1.6 4.8 0.00 0.00 0.00 63 1013.9
20260901021702 29 145 0.0 4.8 0.00 0.00 0.00 62 1013.8
20260901021603 28 109 0.0 4.8 0.00 0.00 0.00 62 1013.5
20260901020802 29 163 0.0 1.6 0.00 0.00 0.00 61 1013.7
20260901020105 29 164 0.0 0.0 0.00 0.00 0.00 61 1013.4
20260901015902 29 0 0.0 0.0 0.00 0.00 0.00 61 1013.6
20260901015002 30 0 0.0 0.0 0.00 0.00 0.00 60 1013.6
20260901014603 30 164 0.0 0.0 0.00 0.00 0.00 60 1013.2
20260901014102 30 0 0.0 0.0 0.00 0.00 0.00 59 1013.4
20260901013202 30 0 0.0 0.0 0.00 0.00 0.00 57 1013.4
20260901013107 30 164 0.0 0.0 0.00 0.00 0.00 57 1013.1
20260901012306 31 164 0.0 1.6 0.00 0.00 0.00 55 1013.4
20260901011503 31 164 0.0 1.6 0.00 0.00 0.00 54 1013.1
20260901011402 31 163 0.0 1.6 0.00 0.00 0.00 54 1013.3
20260901010502 32 163 0.0 1.6 0.00 0.00 0.00 53 1013.3
20260901010108 32 164 0.0 1.6 0.00 0.00 0.00 52 1012.9
20260901005602 32 163 0.0 1.6 0.00 0.00 0.00 51 1013.2
20260901004702 33 163 0.0 1.6 0.00 0.00 0.00 50 1013.2
20260901004504 33 164 0.0 0.0 0.00 0.00 0.00 50 1012.8
20260901003802 33 164 0.0 3.2 0.00 0.00 0.00 49 1013.1